Preview of NWS' New Version of Forecast
This preview is not operational and should not be used for support decisions.

Regional Weather Roundup (RWR)

Issued by National Weather Service (NWS)

                            
000
ASUS45 KABQ 221101
RWRNM 
NEW MEXICO REGIONAL WEATHER ROUNDUP
NATIONAL WEATHER SERVICE ALBUQUERQUE NM
500 AM MDT THU AUG 22 2019

NOTE: "FAIR" MEANS FEW OR NO CLOUDS BELOW 12,000 FEET AGL WITH NO
       SIGNIFICANT WEATHER OR OBSTRUCTIONS TO VISION.

      THIS PRODUCT IS RELEASED AS TWO VERSIONS.  ONE VERSION NEAR
      THE TOP OF THE HOUR CONTAINING PRELIMINARY DATA FROM ALBUQUERQUE
      AND OTHER STATIONS.  A FINAL VERSION WITH ADDITIONAL DATA IS 
      ISSUED ABOUT 10 MINUTES AFTER THE HOUR.
 
NMZ501-503-504-510>518-221200-
NORTHWEST PLATEAU/NORTHCENTRAL MOUNTAINS
  
CITY           SKY/WX    TMP DP  RH WIND       PRES   REMARKS
FARMINGTON     FAIR      66  42  41 E12       30.07F                  
LOS ALAMOS       N/A     58  46  62 CALM      30.27S                  
SANTA FE       FAIR      54  50  86 N9        30.20F                  
TAOS             N/A     46  43  89 N5        30.27F                  
ANGEL FIRE     FAIR      33  32  96 CALM      30.35F                  

$$
NMZ402-403-502-505>509-221200-
WESTCENTRAL MOUNTAINS/SOUTHWEST MOUNTAINS
  
CITY           SKY/WX    TMP DP  RH WIND       PRES   REMARKS
GALLUP         FAIR      64  45  49 S13       30.15S                  
GRANTS         FAIR      57  47  70 SW5       30.20F                  
SILVER CITY    FAIR      58  51  78 N8        30.15S                  

$$
NMZ407-409-411-412-221200-
SOUTHERN DESERTS
  
CITY           SKY/WX    TMP DP  RH WIND       PRES   REMARKS
DEMING         FAIR      65  59  81 N5        30.07F                  
LAS CRUCES     FAIR      66  55  69 NE6       30.09F                  
HOLLOMAN AFB   FAIR      68  57  67 E6        30.08S                  
ALAMOGORDO     FAIR      66  55  68 E5        30.08S                  
T OR C         FAIR      65  54  67 W5        30.10S                  

$$
NMZ519>523-221200-
CENTRAL VALLEYS/CENTRAL HIGHLANDS
  
CITY           SKY/WX    TMP DP  RH WIND       PRES   REMARKS
ALBUQUERQUE    FAIR      64  53  67 NW8       30.14R                  
DOUBLE EAGLE   FAIR      56  49  79 CALM      30.18R                  
CLINES CORNERS FAIR      53  49  86 S6          N/A                   
BELEN          FAIR      59  47  64 W8        30.13R                  
SOCORRO        FAIR      64  49  59 SE6       30.10S                  

$$
NMZ524>526-539-540-221200-
SOUTHCENTRAL MOUNTAINS
  
CITY           SKY/WX    TMP DP  RH WIND       PRES   REMARKS
RUIDOSO        MOCLDY    57  52  82 CALM      30.26F                  

$$
NMZ527>531-221200-
NORTHEAST HIGHLANDS/NORTHEAST PLAINS
  
CITY           SKY/WX    TMP DP  RH WIND       PRES   REMARKS
LAS VEGAS      FAIR      50  44  80 CALM      30.24F                  
RATON          FAIR      46  42  86 E9        30.20S                  
CLAYTON        FAIR      57  55  93 CALM      30.10F                  

$$
NMZ532>537-221200-
EASTCENTRAL PLAINS
  
CITY           SKY/WX    TMP DP  RH WIND       PRES   REMARKS
SANTA ROSA     FAIR      62  61  98 N7        30.12S                  
TUCUMCARI      FAIR      64  61  90 CALM      30.06S                  
CANNON AFB     NOT AVBL                                               
CLOVIS AIRPORT LGT RAIN  64  61  90 S6        30.11S                  

$$
NMZ028-029-538-221200-
SOUTHEAST PLAINS
  
CITY           SKY/WX    TMP DP  RH WIND       PRES   REMARKS
ROSWELL        FAIR      71  65  81 CALM      30.05S                  
ARTESIA        FAIR      75  59  57 CALM      30.06S                  
CARLSBAD       FAIR      75  58  55 MISG      30.02S                  
HOBBS          CLOUDY    72  55  56 NE12      30.07S                  


$$